Du Bois, PA

12:13 AM EST on December 15, 2019 (GMT -0500)
Du Bois-Jefferson County

Weather History for KDUJ - October, 2019

Change the Weather History Date:

Friday, October 25, 2019

  Actual Average Record
Temperature  
Mean Temperature 49 °F 46 °F  
Max Temperature 55 °F 56 °F 79 °F (2012)
Min Temperature 43 °F 37 °F 26 °F (1962)
Degree Days  
Heating Degree Days 16 19  
Month to date heating degree days 335 378  
Since 1 July heating degree days 438 624  
Cooling Degree Days 0 0  
Month to date cooling degree days 23 0  
Year to date cooling degree days 430 360  
Moisture  
Dew Point 40 °F    
Average Humidity 75    
Maximum Humidity 86    
Minimum Humidity 59    
Precipitation  
Precipitation 0.00 in 0.11 in 2.20 in (1980)
Month to date precipitation 3.00 2.51  
Year to date precipitation 39.40 35.75  
Sea Level Pressure  
Sea Level Pressure 30.24 in    
Wind  
Wind Speed 3 mph ()    
Max Wind Speed 8 mph    
Max Gust Speed 11 mph    
Visibility 10.0 miles    
Events      
T = Trace of Precipitation, MM = Missing Value Source: Averaged Metar Reports

Daily Weather History Graph

Daily Weather History Graph

Search for Another Location

Airport or City:

Astronomy

Oct. 25, 2019 Rise Set
Actual Time 7:38 AM EDT 6:20 PM EDT
Civil Twilight 7:10 AM EDT 6:48 PM EDT
Nautical Twilight 6:37 AM EDT 7:20 PM EDT
Astronomical Twilight 6:05 AM EDT 7:52 PM EDT
Moon 4:15 AM EDT (10/25) 5:23 PM EDT (10/25)
Length of Visible Light 11h 38m
Length of Day
10h 42m
Waning Crescent, 9% of the Moon is Illuminated
Oct 25
Waning Crescent
Oct 27
New
Nov 4
First Quarter
Nov 12
Full
Nov 19
Last Quarter

Hourly Weather History & Observations

Time (EDT) Temp. Windchill Dew Point Humidity Pressure Visibility Wind Dir Wind Speed Gust Speed Precip Events Conditions
12:53 AM 46.0 °F 43.1 °F 37.9 °F 73% 30.27 in 10.0 mi NE 5.8 mph - N/A   Scattered Clouds
1:53 AM 46.0 °F 43.1 °F 39.0 °F 76% 30.26 in 10.0 mi NE 5.8 mph - N/A   Overcast
2:53 AM 45.0 °F 41.8 °F 37.9 °F 76% 30.26 in 10.0 mi East 5.8 mph - N/A   Clear
3:53 AM 45.0 °F 42.6 °F 39.0 °F 80% 30.25 in 10.0 mi East 4.6 mph - N/A   Overcast
4:53 AM 44.1 °F - 39.0 °F 82% 30.25 in 10.0 mi Calm Calm - N/A   Scattered Clouds
5:53 AM 43.0 °F 41.3 °F 39.0 °F 86% 30.25 in 10.0 mi ENE 3.5 mph - N/A   Clear
6:53 AM 45.0 °F - 39.0 °F 80% 30.27 in 10.0 mi Calm Calm - N/A   Scattered Clouds
7:53 AM 45.0 °F 43.5 °F 39.0 °F 80% 30.28 in 10.0 mi North 3.5 mph - N/A   Mostly Cloudy
8:53 AM 45.0 °F 43.5 °F 39.9 °F 82% 30.29 in 10.0 mi East 3.5 mph - N/A   Scattered Clouds
9:53 AM 46.9 °F - 41.0 °F 80% 30.28 in 10.0 mi Calm Calm - N/A   Overcast
10:53 AM 46.9 °F - 41.0 °F 80% 30.29 in 10.0 mi Calm Calm - N/A   Overcast
11:53 AM 48.0 °F - 41.0 °F 77% 30.28 in 10.0 mi ESE 4.6 mph - N/A   Overcast
12:53 PM 50.0 °F - 39.9 °F 68% 30.25 in 10.0 mi Variable 3.5 mph - N/A   Overcast
1:53 PM 51.1 °F - 39.9 °F 66% 30.22 in 10.0 mi SE 3.5 mph - N/A   Overcast
2:53 PM 53.1 °F - 41.0 °F 64% 30.21 in 10.0 mi SW 3.5 mph - N/A   Overcast
3:53 PM 55.0 °F - 41.0 °F 59% 30.19 in 10.0 mi WSW 4.6 mph - N/A   Overcast
4:53 PM 54.0 °F - 39.9 °F 59% 30.20 in 10.0 mi SW 5.8 mph - N/A   Mostly Cloudy
5:53 PM 53.1 °F - 41.0 °F 64% 30.19 in 10.0 mi WNW 4.6 mph - N/A   Overcast
6:53 PM 51.1 °F - 42.1 °F 71% 30.19 in 10.0 mi Calm Calm - N/A   Overcast
7:53 PM 50.0 °F - 41.0 °F 71% 30.22 in 10.0 mi West 4.6 mph - N/A   Mostly Cloudy
8:53 PM 50.0 °F - 42.1 °F 74% 30.22 in 10.0 mi West 4.6 mph - N/A   Mostly Cloudy
9:53 PM 48.9 °F - 42.1 °F 77% 30.23 in 10.0 mi Calm Calm - N/A   Overcast
10:53 PM 48.0 °F - 42.1 °F 80% 30.23 in 10.0 mi SW 3.5 mph - N/A   Overcast
11:53 PM 46.0 °F - 42.1 °F 86% 30.22 in 10.0 mi Calm Calm - N/A   Clear